[[{"header":{"parameterUnit":"m.s-1","parameterCategory":2,"la1":30.2992,"la2":30.254,"lo1":-89.0895,"lo2":-89.0443,"dy":0.0025,"dx":0.0025,"nx":19,"ny":19,"refTime":"2026-03-16T21:00:00:Z","depth":"0","parameterNumber":2,"parameterNumberName":"U-component_of_CURRENTS"},"data":[0,0,0,-0.0933,-0.0933,-0.0957,-0.0957,-0.1042,-0.1043,0,0,0,0,0,0,0,0,0,0,0,-0.0924,-0.0924,-0.0933,-0.0933,-0.0957,-0.0957,-0.1042,-0.1043,0,0,0,0,0,0,0,0,0,0,0,-0.0924,-0.0924,-0.0924,-0.0933,-0.0957,-0.0957,-0.1041,-0.1009,0,0,0,0,0,0,0,0,0,0,-0.0979,-0.0957,-0.0924,-0.0924,-0.0934,-0.0957,-0.0957,-0.1007,-0.1012,-0.1047,0,-0.1051,0,-0.1052,-0.105,-0.105,0,0,0,-0.0931,-0.0954,-0.0968,-0.0924,-0.0934,-0.0957,-0.0946,-0.1009,-0.1014,-0.1053,-0.1052,-0.1055,-0.1054,-0.105,-0.1051,-0.1071,-0.1071,0,0,-0.093,-0.0923,-0.0964,-0.0971,-0.0942,-0.0945,-0.0947,-0.1011,-0.1015,-0.1053,-0.1057,-0.1055,-0.1051,-0.1052,-0.1072,-0.1071,0,0,0,-0.0928,-0.0922,-0.0933,-0.0968,-0.097,-0.0946,-0.0947,-0.1011,-0.1017,-0.1058,-0.1056,-0.1052,-0.1053,-0.1072,-0.1072,-0.1066,0,0,0,-0.0927,-0.0921,-0.0932,-0.0927,-0.0968,-0.0982,-0.0946,-0.1012,-0.102,-0.1056,-0.1052,-0.1054,-0.1073,-0.1072,-0.1068,-0.1114,0,0,0,-0.0922,-0.092,-0.0925,-0.0927,-0.0939,-0.0981,-0.0989,-0.1014,-0.102,-0.105,-0.1054,-0.1073,-0.1072,-0.1069,-0.1115,-0.1184,0,0,0,-0.0911,-0.0929,-0.0924,-0.0945,-0.0939,-0.0949,-0.0989,-0.1,-0.1021,-0.1052,-0.1073,-0.1072,-0.1069,-0.1115,-0.1183,-0.13,-0.1314,0,0,-0.0932,-0.0932,-0.0945,-0.0941,-0.0961,-0.0946,-0.0954,-0.0999,-0.1011,-0.1057,-0.1057,-0.1067,-0.1115,-0.1184,-0.1221,-0.1238,0,0,0,-0.095,-0.0959,-0.0963,-0.0974,-0.0973,-0.0978,-0.0984,-0.0978,-0.0995,-0.1018,-0.1041,-0.1072,-0.1116,-0.1182,-0.1194,-0.1208,-0.1065,-0.1065,-0.1066,-0.0964,-0.0973,-0.0993,-0.1001,-0.1003,-0.0993,-0.0995,-0.0987,-0.0986,-0.097,-0.1045,-0.1069,-0.1134,-0.1146,-0.1155,-0.0994,-0.0994,-0.0994,-0.0994,-0.0993,-0.1002,-0.1015,-0.1036,-0.1036,-0.1035,-0.1023,-0.1009,-0.1039,-0.1001,-0.1043,-0.1145,-0.1161,-0.1165,-0.0993,-0.0993,-0.0993,-0.0993,-0.0993,-0.0991,-0.0997,-0.1016,-0.104,-0.1063,-0.1061,-0.1108,-0.1088,-0.1075,-0.1104,-0.1224,-0.1226,-0.1258,-0.1135,-0.1135,-0.1136,-0.1136,-0.1136,-0.1137,-0.0973,-0.0994,-0.1008,-0.1042,-0.1061,-0.1102,-0.1158,-0.1206,-0.1275,-0.1269,-0.127,-0.1267,-0.1114,-0.1141,-0.1144,-0.1143,-0.1142,-0.1141,-0.114,-0.0956,-0.096,-0.0983,-0.1005,-0.107,-0.1137,-0.1225,-0.1398,-0.1462,-0.1525,-0.1476,-0.1362,-0.1401,-0.1391,-0.1425,-0.1502,-0.1502,-0.1502,-0.1502,-0.0927,-0.0938,-0.0954,-0.0991,-0.1061,-0.1148,-0.1333,-0.1501,-0.1622,-0.1654,-0.1627,-0.1586,-0.1571,-0.1615,-0.16,-0.1635,-0.1764,-0.1764,-0.1764,-0.0902,-0.0916,-0.0916,-0.0963,-0.1047,-0.1171,-0.1334,-0.1555,-0.1734,-0.1769,-0.162,-0.1609,-0.1536,-0.1511,-0.1566,-0.1543,-0.1595,0,0]},{"header":{"parameterUnit":"m.s-1","parameterCategory":2,"la1":30.2992,"la2":30.254,"lo1":-89.0895,"lo2":-89.0443,"dy":0.0025,"dx":0.0025,"nx":19,"ny":19,"refTime":"2026-03-16T21:00:00:Z","depth":"0","parameterNumber":3,"parameterNumberName":"V-component_of_CURRENTS"},"data":[0,0,0,-0.0161,-0.016,-0.0135,-0.0135,-0.0059,-0.0058,0,0,0,0,0,0,0,0,0,0,0,-0.0167,-0.0167,-0.0161,-0.016,-0.0135,-0.0135,-0.0059,-0.0058,0,0,0,0,0,0,0,0,0,0,0,-0.0167,-0.0167,-0.0167,-0.016,-0.0135,-0.0135,-0.0059,-0.0088,0,0,0,0,0,0,0,0,0,0,-0.0117,-0.0135,-0.0167,-0.0167,-0.016,-0.0135,-0.0135,-0.009,-0.0086,-0.0059,0,-0.0057,0,-0.0058,-0.0053,-0.0052,0,0,0,-0.0156,-0.0138,-0.0128,-0.0167,-0.016,-0.0135,-0.0145,-0.0088,-0.0084,-0.0054,-0.0056,-0.0054,-0.0056,-0.0052,-0.0052,0.0009,0.001,0,0,-0.0157,-0.0163,-0.0132,-0.0126,-0.0154,-0.0146,-0.0144,-0.0086,-0.0083,-0.0056,-0.0052,-0.0055,-0.0051,-0.0051,0.0009,0.001,0,0,0,-0.0164,-0.0164,-0.0156,-0.0129,-0.0129,-0.0145,-0.0144,-0.0085,-0.0082,-0.0051,-0.0054,-0.0051,-0.005,0.0009,0.0009,-0.0002,0,0,0,-0.0165,-0.0168,-0.0157,-0.016,-0.013,-0.0114,-0.0144,-0.0086,-0.008,-0.0054,-0.0051,-0.0049,0.0009,0.0009,-0.0001,-0.001,0,0,0,-0.0168,-0.0169,-0.0166,-0.0161,-0.0152,-0.0115,-0.0109,-0.0085,-0.0081,-0.0052,-0.0049,0.0009,0.0009,-0.0001,-0.0009,-0.0011,0,0,0,-0.0175,-0.0175,-0.0166,-0.0164,-0.0153,-0.0138,-0.0109,-0.0094,-0.0073,-0.0051,0.0009,0.0009,-0.0001,-0.0009,-0.001,-0.0075,-0.0082,0,0,-0.018,-0.0176,-0.0174,-0.0166,-0.016,-0.0141,-0.0122,-0.0083,-0.006,-0.0006,-0.0005,-0.0001,-0.0009,-0.0011,-0.007,-0.0077,0,0,0,-0.0179,-0.018,-0.0177,-0.017,-0.0154,-0.0133,-0.0103,-0.008,-0.0037,-0.0047,0.0003,-0.0001,-0.0002,-0.004,-0.0045,0.0092,0.001,0.001,0.001,-0.0201,-0.019,-0.019,-0.0174,-0.0159,-0.0124,-0.0099,-0.0059,-0.0038,-0.0023,-0.0007,-0.0011,-0.0052,-0.0056,0.0086,-0.0,-0.0,-0.0,-0.0,-0.0223,-0.0225,-0.0203,-0.02,-0.0167,-0.0145,-0.0084,-0.0062,-0.0019,-0.0008,-0.0007,-0.0046,-0.0063,0.0091,-0.0001,-0.0001,-0.0001,-0.0001,-0.0001,-0.0248,-0.0246,-0.0242,-0.0233,-0.0207,-0.0164,-0.0148,-0.0088,-0.0036,-0.0025,-0.0067,-0.0068,0.0064,-0.0028,-0.0028,-0.0028,-0.0028,-0.0028,-0.0029,-0.0278,-0.0271,-0.0288,-0.027,-0.027,-0.0251,-0.0188,-0.0168,-0.0121,-0.0087,-0.0087,0.0078,-0.0019,-0.0022,-0.0029,-0.0029,-0.0029,-0.0029,-0.0029,-0.0306,-0.031,-0.034,-0.0351,-0.0362,-0.0409,-0.0334,-0.0308,-0.0247,-0.0238,0.0013,-0.0116,-0.0119,-0.0115,-0.012,-0.0152,-0.0152,-0.0152,-0.0152,-0.0331,-0.0333,-0.0394,-0.0436,-0.0472,-0.0485,-0.0577,-0.0503,-0.0231,-0.0066,0.0043,0.0059,0.0057,0.0068,0.0068,0.0068,0.0085,0.0085,0.0086,-0.0352,-0.0371,-0.0429,-0.0478,-0.0529,-0.0602,-0.0736,-0.0682,-0.0186,0.0115,0.0255,0.0244,0.0289,0.0276,0.0308,0.0297,0.0302,0,0]}],[{"header":{"parameterUnit":"m.s-1","parameterCategory":2,"la1":30.2992,"la2":30.254,"lo1":-89.0895,"lo2":-89.0443,"dy":0.0025,"dx":0.0025,"nx":19,"ny":19,"refTime":"2026-03-16T21:00:00:Z","depth":"2","parameterNumber":2,"parameterNumberName":"U-component_of_CURRENTS"},"data":[0,0,0,-0.0792,-0.0793,-0.0818,-0.0818,-0.0872,-0.0873,0,0,0,0,0,0,0,0,0,0,0,-0.0781,-0.0781,-0.0792,-0.0793,-0.0818,-0.0818,-0.0872,-0.0873,0,0,0,0,0,0,0,0,0,0,0,-0.0781,-0.0781,-0.0782,-0.0793,-0.0818,-0.0818,-0.0872,-0.0847,0,0,0,0,0,0,0,0,0,0,-0.0819,-0.0802,-0.0781,-0.0782,-0.0793,-0.0818,-0.0818,-0.0845,-0.0848,-0.0867,0,-0.0871,0,-0.0876,-0.0877,-0.0877,0,0,0,-0.0791,-0.0799,-0.0812,-0.0782,-0.0793,-0.0818,-0.0806,-0.0847,-0.085,-0.0871,-0.0872,-0.0874,-0.0877,-0.0877,-0.0878,-0.0887,-0.0887,0,0,-0.0789,-0.0781,-0.081,-0.0814,-0.0801,-0.0805,-0.0807,-0.0849,-0.085,-0.0872,-0.0875,-0.0878,-0.0878,-0.0878,-0.0887,-0.0887,0,0,0,-0.0787,-0.078,-0.0791,-0.0812,-0.0817,-0.0806,-0.0808,-0.0848,-0.0853,-0.0876,-0.0878,-0.0878,-0.0879,-0.0888,-0.0887,-0.0887,0,0,0,-0.0786,-0.0779,-0.0791,-0.0786,-0.0816,-0.0829,-0.0806,-0.085,-0.0855,-0.0878,-0.0878,-0.0879,-0.0888,-0.0887,-0.0888,-0.093,0,0,0,-0.078,-0.0778,-0.0783,-0.0785,-0.0798,-0.0828,-0.0835,-0.0851,-0.0857,-0.0877,-0.088,-0.0888,-0.0888,-0.0889,-0.093,-0.0998,0,0,0,-0.0769,-0.0782,-0.0783,-0.0802,-0.0798,-0.0809,-0.0835,-0.0845,-0.0859,-0.0878,-0.0888,-0.0887,-0.0889,-0.0929,-0.0997,-0.1081,-0.1094,0,0,-0.0782,-0.0783,-0.0797,-0.0798,-0.0818,-0.0805,-0.0814,-0.0844,-0.0851,-0.0877,-0.0877,-0.0888,-0.093,-0.0998,-0.1029,-0.1044,0,0,0,-0.0799,-0.0807,-0.0812,-0.0826,-0.0829,-0.0834,-0.0836,-0.0829,-0.0841,-0.0856,-0.087,-0.0897,-0.094,-0.0986,-0.0997,-0.0883,-0.0883,-0.0883,-0.0883,-0.0802,-0.0817,-0.0836,-0.0849,-0.0853,-0.0847,-0.085,-0.0841,-0.0834,-0.0824,-0.0881,-0.0916,-0.096,-0.0971,-0.0841,-0.0841,-0.0841,-0.0841,-0.0841,-0.0822,-0.0834,-0.0854,-0.0876,-0.0882,-0.0882,-0.0874,-0.0862,-0.0891,-0.0853,-0.0894,-0.0964,-0.0984,-0.0841,-0.0841,-0.0841,-0.0841,-0.0841,-0.0841,-0.0817,-0.0824,-0.0845,-0.0874,-0.0902,-0.0905,-0.0951,-0.0936,-0.0927,-0.0955,-0.1052,-0.1052,-0.0972,-0.0987,-0.0988,-0.0988,-0.0989,-0.0989,-0.0989,-0.0794,-0.0818,-0.0832,-0.0869,-0.0891,-0.0935,-0.0996,-0.1041,-0.1104,-0.1095,-0.1095,-0.0968,-0.0963,-0.0981,-0.0996,-0.0995,-0.0994,-0.0993,-0.0993,-0.0773,-0.0779,-0.0801,-0.0822,-0.0889,-0.0948,-0.104,-0.1197,-0.1262,-0.1315,-0.1181,-0.1174,-0.1205,-0.1196,-0.122,-0.1297,-0.1297,-0.1297,-0.1297,-0.0744,-0.0754,-0.0772,-0.0804,-0.0867,-0.0949,-0.1102,-0.1242,-0.1329,-0.1323,-0.1321,-0.1267,-0.1255,-0.1285,-0.1273,-0.1297,-0.1394,-0.1394,-0.1394,-0.0718,-0.0732,-0.0734,-0.0778,-0.0849,-0.0955,-0.1082,-0.122,-0.1319,-0.139,-0.1259,-0.1319,-0.1231,-0.1216,-0.1253,-0.1238,-0.1274,0,0]},{"header":{"parameterUnit":"m.s-1","parameterCategory":2,"la1":30.2992,"la2":30.254,"lo1":-89.0895,"lo2":-89.0443,"dy":0.0025,"dx":0.0025,"nx":19,"ny":19,"refTime":"2026-03-16T21:00:00:Z","depth":"2","parameterNumber":3,"parameterNumberName":"V-component_of_CURRENTS"},"data":[0,0,0,-0.0122,-0.0122,-0.0102,-0.0102,-0.0018,-0.0017,0,0,0,0,0,0,0,0,0,0,0,-0.0127,-0.0127,-0.0122,-0.0122,-0.0102,-0.0102,-0.0018,-0.0017,0,0,0,0,0,0,0,0,0,0,0,-0.0127,-0.0127,-0.0126,-0.0122,-0.0102,-0.0102,-0.0018,-0.0046,0,0,0,0,0,0,0,0,0,0,-0.0073,-0.0091,-0.0127,-0.0126,-0.0122,-0.0102,-0.0102,-0.0048,-0.0045,-0.0012,0,-0.0011,0,-0.0013,-0.001,-0.001,0,0,0,-0.0117,-0.0094,-0.0086,-0.0126,-0.0122,-0.0102,-0.011,-0.0047,-0.0042,-0.0006,-0.001,-0.0007,-0.0012,-0.001,-0.0009,0.0047,0.0047,0,0,-0.0118,-0.0123,-0.0089,-0.0083,-0.0118,-0.011,-0.0109,-0.0045,-0.0041,-0.001,-0.0006,-0.0011,-0.0009,-0.0008,0.0047,0.0047,0,0,0,-0.0125,-0.0124,-0.0118,-0.0086,-0.0088,-0.011,-0.0108,-0.0044,-0.0041,-0.0005,-0.001,-0.0008,-0.0007,0.0047,0.0047,0.0031,0,0,0,-0.0125,-0.0128,-0.0119,-0.0121,-0.009,-0.0075,-0.0109,-0.0046,-0.0039,-0.001,-0.0008,-0.0006,0.0047,0.0047,0.0031,0.0026,0,0,0,-0.0127,-0.0128,-0.0126,-0.0122,-0.0116,-0.0076,-0.007,-0.0045,-0.0041,-0.001,-0.0006,0.0047,0.0047,0.0032,0.0027,0.0027,0,0,0,-0.0132,-0.0137,-0.0126,-0.013,-0.0116,-0.0108,-0.0071,-0.0059,-0.0037,-0.0008,0.0047,0.0047,0.0032,0.0027,0.0027,-0.0034,-0.0042,0,0,-0.0143,-0.0138,-0.014,-0.013,-0.013,-0.011,-0.0098,-0.0054,-0.0027,0.0032,0.0033,0.0031,0.0027,0.0027,-0.005,-0.0057,0,0,0,-0.0146,-0.0149,-0.0147,-0.0143,-0.0131,-0.0111,-0.008,-0.0058,-0.0015,-0.0016,0.003,0.0028,0.0028,-0.0008,-0.0013,0.0045,0.0045,0.0046,0.0046,-0.0172,-0.0162,-0.0167,-0.0154,-0.0141,-0.0109,-0.0085,-0.0047,-0.0023,-0.0012,0.0014,0.0002,-0.0038,-0.0043,0.0012,0.0012,0.0012,0.0012,0.0012,-0.0199,-0.0204,-0.0183,-0.0186,-0.0153,-0.0135,-0.0077,-0.0056,-0.0013,-0.0001,0.0,-0.0024,-0.005,0.0011,0.0011,0.0011,0.0011,0.0011,0.0011,-0.0225,-0.0226,-0.0224,-0.0219,-0.0196,-0.0156,-0.0141,-0.0082,-0.0031,-0.0019,-0.0055,-0.0056,-0.0003,-0.0021,-0.0022,-0.0022,-0.0022,-0.0022,-0.0022,-0.0255,-0.0251,-0.0269,-0.0257,-0.0257,-0.0241,-0.0181,-0.0161,-0.0114,-0.0077,-0.0078,-0.001,-0.0008,-0.0005,-0.0022,-0.0022,-0.0022,-0.0022,-0.0022,-0.0287,-0.0288,-0.032,-0.0333,-0.0347,-0.0389,-0.0321,-0.0294,-0.0236,-0.0226,-0.0106,-0.0104,-0.0103,-0.0099,-0.0098,-0.0138,-0.0138,-0.0138,-0.0138,-0.0311,-0.0313,-0.0372,-0.0413,-0.0449,-0.0459,-0.0539,-0.0469,-0.032,-0.0222,-0.0218,-0.0231,-0.0225,-0.0229,-0.0223,-0.0224,-0.0296,-0.0296,-0.0296,-0.0333,-0.0351,-0.0405,-0.0452,-0.05,-0.0565,-0.0674,-0.0614,-0.0371,-0.03,-0.022,-0.0153,-0.0162,-0.0156,-0.0154,-0.0147,-0.0145,0,0]}],[{"header":{"parameterUnit":"m.s-1","parameterCategory":2,"la1":30.2992,"la2":30.254,"lo1":-89.0895,"lo2":-89.0443,"dy":0.0025,"dx":0.0025,"nx":19,"ny":19,"refTime":"2026-03-16T21:00:00:Z","depth":"4","parameterNumber":2,"parameterNumberName":"U-component_of_CURRENTS"},"data":[0,0,0,-0.0586,-0.0587,-0.0657,-0.0658,-0.0664,-0.0664,0,0,0,0,0,0,0,0,0,0,0,-0.0569,-0.0569,-0.0586,-0.0587,-0.0657,-0.0658,-0.0664,-0.0664,0,0,0,0,0,0,0,0,0,0,0,-0.0568,-0.0569,-0.057,-0.0587,-0.0657,-0.0658,-0.0664,-0.0635,0,0,0,0,0,0,0,0,0,0,-0.0578,-0.0572,-0.0569,-0.057,-0.0588,-0.0657,-0.0658,-0.0634,-0.0636,-0.0606,0,-0.0618,0,-0.0631,-0.0662,-0.0661,0,0,0,-0.0598,-0.0571,-0.0584,-0.057,-0.0588,-0.0657,-0.0629,-0.0636,-0.0639,-0.0608,-0.0619,-0.0619,-0.0631,-0.0661,-0.0661,-0.0717,-0.0718,0,0,-0.0594,-0.0585,-0.0583,-0.0585,-0.0607,-0.0626,-0.0631,-0.0639,-0.0642,-0.0619,-0.062,-0.0631,-0.0661,-0.0661,-0.0716,-0.0717,0,0,0,-0.0576,-0.0582,-0.0597,-0.0585,-0.0598,-0.0628,-0.0633,-0.0642,-0.0646,-0.062,-0.0631,-0.0661,-0.066,-0.0715,-0.0717,-0.0774,0,0,0,-0.0574,-0.057,-0.0596,-0.0591,-0.0599,-0.0632,-0.0636,-0.0646,-0.0647,-0.0631,-0.0661,-0.066,-0.0714,-0.0716,-0.077,-0.0781,0,0,0,-0.0565,-0.0569,-0.0577,-0.059,-0.0615,-0.0633,-0.0639,-0.0648,-0.0653,-0.0661,-0.066,-0.0714,-0.0716,-0.0767,-0.0776,-0.0782,0,0,0,-0.0554,-0.0578,-0.0577,-0.06,-0.0614,-0.067,-0.0639,-0.0692,-0.071,-0.0661,-0.0714,-0.0717,-0.0766,-0.0773,-0.078,-0.0701,0,0,0,-0.0579,-0.0581,-0.0593,-0.0593,-0.0633,-0.0661,-0.0725,-0.074,-0.0727,-0.0705,-0.0707,-0.0771,-0.0776,-0.0782,-0.0827,0,0,0,0,-0.0597,-0.0607,-0.062,-0.0637,-0.0672,-0.072,-0.0754,-0.078,-0.0812,-0.0744,-0.0798,-0.08,-0.0801,-0.075,-0.0727,-0.0727,-0.0726,-0.0726,-0.0726,-0.0619,-0.0625,-0.0649,-0.0669,-0.0704,-0.0777,-0.0832,-0.0871,-0.0852,-0.0897,-0.0867,-0.0938,-0.0892,-0.0897,-0.0898,-0.0898,-0.0898,-0.0898,-0.0899,-0.0643,-0.0643,-0.0663,-0.0693,-0.0734,-0.079,-0.0884,-0.092,-0.0977,-0.0957,-0.0955,-0.0841,-0.0905,-0.0904,-0.0903,-0.0902,-0.0902,-0.0901,-0.0901,-0.0633,-0.0634,-0.0659,-0.0693,-0.074,-0.0807,-0.0878,-0.095,-0.1009,-0.1039,-0.0952,-0.0968,-0.0937,-0.1026,-0.1026,-0.1026,-0.1027,-0.1027,-0.1027,-0.0605,-0.0629,-0.0652,-0.0692,-0.0717,-0.0769,-0.0879,-0.0936,-0.1002,-0.1004,-0.104,-0.098,-0.0976,-0.0944,-0.1028,-0.1028,-0.1028,-0.1028,-0.1028,-0.0573,-0.0593,-0.0622,-0.065,-0.0708,-0.0732,-0.0834,-0.0917,-0.0968,-0.0986,-0.0979,-0.0981,-0.0942,-0.0938,-0.0903,-0.0978,-0.0977,-0.0976,0,-0.0542,-0.0556,-0.059,-0.0628,-0.0669,-0.0715,-0.0788,-0.0855,-0.0912,-0.0889,-0.0957,-0.0946,-0.0948,-0.0898,-0.0894,-0.085,0,0,0,-0.0516,-0.0533,-0.0543,-0.0595,-0.0643,-0.0719,-0.08,-0.082,-0.0895,-0.0935,-0.0958,-0.0963,-0.1002,-0.1034,-0.0976,-0.0971,-0.0917,0,0]},{"header":{"parameterUnit":"m.s-1","parameterCategory":2,"la1":30.2992,"la2":30.254,"lo1":-89.0895,"lo2":-89.0443,"dy":0.0025,"dx":0.0025,"nx":19,"ny":19,"refTime":"2026-03-16T21:00:00:Z","depth":"4","parameterNumber":3,"parameterNumberName":"V-component_of_CURRENTS"},"data":[0,0,0,-0.0003,-0.0003,0.0024,0.0024,0.0105,0.0106,0,0,0,0,0,0,0,0,0,0,0,-0.0017,-0.0017,-0.0003,-0.0003,0.0024,0.0024,0.0105,0.0106,0,0,0,0,0,0,0,0,0,0,0,-0.0017,-0.0017,-0.0017,-0.0003,0.0024,0.0024,0.0105,0.0074,0,0,0,0,0,0,0,0,0,0,0.0043,0.0025,-0.0017,-0.0017,-0.0003,0.0024,0.0024,0.0073,0.0076,0.0104,0,0.0099,0,0.0104,0.0112,0.0112,0,0,0,0.0004,0.0021,0.0025,-0.0017,-0.0002,0.0024,0.0014,0.0074,0.0079,0.0109,0.01,0.0103,0.0106,0.0112,0.0112,0.0146,0.0146,0,0,0.0002,-0.0004,0.0022,0.0027,-0.0006,0.0013,0.0015,0.0077,0.008,0.01,0.0105,0.0107,0.0113,0.0113,0.0146,0.0146,0,0,0,-0.0006,-0.0005,-0.0004,0.0024,0.0026,0.0014,0.0015,0.0077,0.0076,0.0105,0.0108,0.0113,0.0114,0.0147,0.0146,0.0078,0,0,0,-0.0007,-0.001,-0.0004,-0.0007,0.0024,0.0047,0.0015,0.0072,0.0079,0.0108,0.0113,0.0115,0.0147,0.0146,0.008,0.0053,0,0,0,-0.0016,-0.0011,-0.0013,-0.0007,0.0001,0.0045,0.0048,0.0073,0.0081,0.0112,0.0115,0.0147,0.0147,0.0082,0.0057,0.0038,0,0,0,-0.0016,-0.004,-0.0013,-0.0033,0.0001,-0.0003,0.0048,0.0061,0.0082,0.0114,0.0147,0.0146,0.0083,0.0059,0.004,0.0036,0,0,0,-0.0052,-0.0045,-0.0057,-0.0032,-0.0048,-0.0006,-0.0019,0.0036,0.0083,0.0132,0.0133,0.0079,0.0057,0.0038,-0.0004,0,0,0,0,-0.0071,-0.0079,-0.0079,-0.0078,-0.0067,-0.0062,-0.0012,0.0005,0.0045,0.0092,0.0085,0.0073,0.0063,0.0068,0.0143,0.0143,0.0143,0.0143,0.0143,-0.0121,-0.0113,-0.0131,-0.012,-0.012,-0.0094,-0.0089,-0.0052,0.0004,0.0006,0.0021,-0.0035,-0.0033,0.0025,0.0025,0.0025,0.0024,0.0024,0.0024,-0.0168,-0.0176,-0.0165,-0.0179,-0.0168,-0.0171,-0.0149,-0.012,-0.0095,-0.0046,-0.0052,-0.0,0.0017,0.0019,0.002,0.002,0.0021,0.0021,0.0022,-0.0191,-0.0196,-0.0199,-0.0215,-0.0226,-0.0211,-0.0227,-0.0196,-0.0151,-0.0156,-0.012,-0.0075,-0.0072,-0.0145,-0.0145,-0.0146,-0.0146,-0.0146,-0.0146,-0.0212,-0.0218,-0.024,-0.025,-0.0262,-0.0273,-0.0264,-0.0251,-0.021,-0.0194,-0.0161,-0.0091,-0.0086,-0.0081,-0.015,-0.0149,-0.0149,-0.0148,-0.0148,-0.0239,-0.0243,-0.0279,-0.0295,-0.0325,-0.0332,-0.0319,-0.0293,-0.0286,-0.0262,-0.0211,-0.0207,-0.0178,-0.017,-0.0167,-0.0264,-0.0264,-0.0264,0,-0.0256,-0.0261,-0.0318,-0.0358,-0.039,-0.0376,-0.0371,-0.0344,-0.03,-0.031,-0.0281,-0.0227,-0.0223,-0.019,-0.0183,-0.018,0,0,0,-0.0273,-0.029,-0.0337,-0.0383,-0.0422,-0.04,-0.0373,-0.0365,-0.0308,-0.0284,-0.0272,-0.027,-0.018,-0.016,-0.0104,-0.0098,-0.0086,0,0]}]]